Regional Weather Roundup
Issued by NWS

Home | Current Version | Previous Version | Text Only | Print | Product List | Glossary Off
Versions: 1 2 3 4 5 6 7 8 9 10 11 12 13 14 15 16 17 18 19 20 21 22 23 24 25 26 27 28 29 30 31 32 33 34 35 36 37 38 39 40 41 42 43 44 45 46 47 48 49 50

000
ASUS43 KFSD 291202
RWRSD

WEATHER ROUNDUP FOR SOUTH DAKOTA
NATIONAL WEATHER SERVICE SIOUX FALLS SD
600 AM CST THU JAN 29 2015

NOTE: "FAIR" INDICATES FEW OR NO CLOUDS BELOW 12,000 FEET WITH NO
SIGNIFICANT WEATHER AND/OR OBSTRUCTIONS TO VISIBILITY.


SDZ001>005-009-010-012>017-291300-
NORTHWEST AND NORTH CENTRAL SOUTH DAKOTA

CITY           SKY/WX    TMP DP  RH WIND       PRES   REMARKS
BUFFALO          N/A     27  23  85 NW21      30.32R WCI  13
FAITH            N/A     30  21  69 NW13      30.38R WCI  20
MOBRIDGE       CLOUDY    31  23  72 NW25G32   30.33R WCI  17
$$

SDZ012>016-024>037-041>051-057-063-072>074-291300-
SOUTHWEST AND SOUTH CENTRAL SOUTH DAKOTA

CITY           SKY/WX    TMP DP  RH WIND       PRES   REMARKS
RAPID CTY ARPT CLEAR     28  23  81 N15       30.40R WCI  16
PIERRE         CLOUDY    35  26  69 NW10      30.35R WCI  27
CUSTER         CLEAR     26  -5  25 NE7       30.33R WCI  18
ELLSWORTH AFB  CLEAR     29  24  81 N15       30.39R WCI  18
PHILIP         CLOUDY    35  21  56 NW20G29   30.41R WCI  24
PINE RIDGE     CLEAR     22  19  89 W3        30.42R
WINNER         CLOUDY    36  26  67 NW18      30.35R
$$

SDZ004>011-016>023-039-040-291300-
NORTHEAST SOUTH DAKOTA

CITY           SKY/WX    TMP DP  RH WIND       PRES   REMARKS
ABERDEEN       CLOUDY    32  25  75 N15       30.31R WCI  22
WATERTOWN      CLOUDY    27  22  81 NW25G31   30.23R WCI  12
SISSETON         N/A     27  22  81 N23G31    30.25R WCI  12
$$

SDZ017-020-022-023-036>040-048>070-291300-
SOUTHEAST SOUTH DAKOTA

CITY           SKY/WX    TMP DP  RH WIND       PRES   REMARKS
SIOUX FALLS    CLOUDY    31  25  78 N25G36    30.21R WCI  17
HURON          CLOUDY    32  26  78 N21G29    30.30R WCI  20
MITCHELL       CLOUDY    34  28  79 NW20G30   30.31R WCI  23
YANKTON        CLOUDY    36  28  75 NW24G36   30.27R
$$

ABBREVIATIONS USED IN REMARKS
   TC - TEMPERATURE IN CELSIUS
  WCI - WIND CHILL INDEX
   HX - HEAT INDEX
  VSB - VISIBILITY



USA.gov is the U.S. government's official web portal to all federal, state and local government web resources and services.